Weather History for Cape Girardeau, MO

Change the Weather History Date:

Tuesday, March 25, 2014

  Actual Average Record
Temperature  
Mean Temperature 36 °F 50 °F  
Max Temperature 45 °F 62 °F 83 °F (2007)
Min Temperature 26 °F 38 °F 20 °F (1966)
Degree Days  
Heating Degree Days 29 15  
Month to date heating degree days 610 474  
Since 1 July heating degree days 4535 3971  
Cooling Degree Days 0 0  
Month to date cooling degree days 0 0  
Year to date cooling degree days 0 0  
Moisture  
Dew Point 24 °F    
Average Humidity 58    
Maximum Humidity 89    
Minimum Humidity 27    
Precipitation  
Precipitation T in 0.15 in 1.94 in (2002)
Month to date precipitation 1.80 3.46  
Year to date precipitation 4.94 10.34  
Sea Level Pressure  
Sea Level Pressure 30.20 in    
Wind  
Wind Speed 12 mph (NNW)    
Max Wind Speed 25 mph    
Max Gust Speed 32 mph    
Visibility 8 miles    
Events Snow    
T = Trace of Precipitation, MM = Missing Value Source: NWS Daily Summary

Daily Weather History Graph

Daily Weather History Graph

Search for Another Location

Airport:

Trip Planner

Search our weather history database for the weather conditions in past years. The results will help you decide how hot, cold, wet, or windy it might be!

Date:

Astronomy

Mar. 25, 2014 Rise Set
Actual Time 6:54 AM CDT 7:14 PM CDT
Civil Twilight 6:28 AM CDT 7:40 PM CDT
Nautical Twilight 5:57 AM CDT 8:11 PM CDT
Astronomical Twilight 5:26 AM CDT 8:42 PM CDT
Moon 3:09 AM CDT (3/25) 1:51 PM CDT (3/25)
Length of Visible Light 13h 12m
Length of Day
12h 20m
Waning Crescent, 32% of the Moon is Illuminated
Mar 25
Waning Crescent
Mar 30
New
Apr 7
First Quarter
Apr 15
Full
Apr 22
Last Quarter

Hourly Weather History & Observations

Time (CDT) Temp. Windchill Dew Point Humidity Pressure Visibility Wind Dir Wind Speed Gust Speed Precip Events Conditions
12:53 AM 33.1 °F - 30.0 °F 89% 30.17 in 9.0 mi Calm Calm - N/A   Overcast
1:25 AM 34.0 °F 31.0 °F 30.0 °F 85% 30.15 in 9.0 mi North 3.5 mph - N/A   Overcast
1:43 AM 34.0 °F 29.8 °F 30.0 °F 85% 30.15 in 7.0 mi NW 4.6 mph - N/A   Overcast
1:53 AM 34.0 °F 28.0 °F 30.0 °F 85% 30.16 in 7.0 mi NNW 6.9 mph - N/A   Overcast
2:00 AM 34.0 °F 31.0 °F 30.0 °F 85% 30.15 in 7.0 mi North 3.5 mph - N/A   Overcast
2:30 AM 34.0 °F 28.8 °F 30.0 °F 85% 30.15 in 5.0 mi NNW 5.8 mph - 0.00 in Snow Light Snow
2:38 AM 34.0 °F 28.8 °F 30.0 °F 85% 30.15 in 4.0 mi NNW 5.8 mph - 0.00 in Snow Light Snow
2:53 AM 33.1 °F 27.7 °F 30.9 °F 92% 30.14 in 4.0 mi NNW 5.8 mph - 0.00 in Snow Light Snow
3:11 AM 33.1 °F 26.9 °F 30.0 °F 89% 30.13 in 3.0 mi NNW 6.9 mph - 0.00 in Snow Light Snow
3:25 AM 33.1 °F 28.7 °F 30.0 °F 89% 30.13 in 4.0 mi NW 4.6 mph - 0.00 in Snow Light Snow
3:33 AM 33.1 °F 28.7 °F 30.9 °F 92% 30.13 in 4.0 mi WNW 4.6 mph - 0.00 in   Overcast
3:53 AM 33.1 °F 26.9 °F 30.9 °F 92% 30.13 in 5.0 mi WNW 6.9 mph - 0.00 in   Overcast
4:07 AM 33.1 °F 27.7 °F 30.9 °F 92% 30.12 in 4.0 mi WNW 5.8 mph - N/A   Overcast
4:35 AM 32.0 °F 25.6 °F 30.0 °F 92% 30.12 in 5.0 mi West 6.9 mph - N/A   Overcast
4:53 AM 33.1 °F 26.9 °F 30.9 °F 92% 30.13 in 5.0 mi West 6.9 mph - N/A   Overcast
5:04 AM 34.0 °F 27.2 °F 30.9 °F 89% 30.13 in 5.0 mi West 8.1 mph - N/A   Overcast
5:53 AM 34.0 °F 26.6 °F 30.0 °F 85% 30.14 in 6.0 mi WNW 9.2 mph - 0.00 in   Overcast
6:09 AM 33.1 °F 26.1 °F 28.9 °F 85% 30.14 in 7.0 mi NW 8.1 mph - N/A   Mostly Cloudy
6:53 AM 34.0 °F 22.1 °F 27.0 °F 75% 30.17 in 9.0 mi NNW 21.9 mph 25.3 mph N/A   Mostly Cloudy
7:53 AM 35.1 °F 25.9 °F 26.1 °F 70% 30.20 in 10.0 mi NNW 13.8 mph 20.7 mph N/A   Scattered Clouds
8:53 AM 37.0 °F 27.0 °F 23.0 °F 57% 30.22 in 10.0 mi NW 18.4 mph 25.3 mph N/A   Clear
9:53 AM 37.9 °F 27.6 °F 23.0 °F 55% 30.25 in 10.0 mi NW 20.7 mph 25.3 mph N/A   Mostly Cloudy
10:53 AM 39.9 °F 31.1 °F 21.0 °F 47% 30.26 in 10.0 mi NNW 17.3 mph 27.6 mph N/A   Scattered Clouds
11:53 AM 41.0 °F 33.5 °F 19.0 °F 41% 30.27 in 10.0 mi NW 13.8 mph - N/A   Overcast
12:53 PM 39.0 °F 29.0 °F 17.1 °F 41% 30.27 in 10.0 mi NNW 20.7 mph 29.9 mph N/A   Overcast
1:53 PM 43.0 °F 35.1 °F 16.0 °F 34% 30.26 in 10.0 mi NW 17.3 mph 23.0 mph N/A   Mostly Cloudy
2:53 PM 43.0 °F 34.5 °F 15.1 °F 32% 30.25 in 10.0 mi NNW 19.6 mph 26.5 mph N/A   Overcast
3:53 PM 42.1 °F 33.9 °F 12.0 °F 29% 30.25 in 10.0 mi WNW 17.3 mph 25.3 mph N/A   Partly Cloudy
4:53 PM 43.0 °F 36.0 °F 12.0 °F 28% 30.23 in 10.0 mi North 13.8 mph - N/A   Overcast
5:53 PM 43.0 °F 35.7 °F 10.9 °F 27% 30.23 in 10.0 mi NW 15.0 mph 21.9 mph N/A   Partly Cloudy
6:53 PM 39.9 °F 32.5 °F 12.9 °F 33% 30.25 in 10.0 mi North 12.7 mph - N/A   Clear
7:53 PM 36.0 °F 29.0 °F 14.0 °F 41% 30.26 in 10.0 mi North 9.2 mph - N/A   Clear
8:53 PM 33.1 °F 27.7 °F 14.0 °F 46% 30.27 in 10.0 mi North 5.8 mph - N/A   Clear
9:53 PM 32.0 °F 25.6 °F 14.0 °F 48% 30.29 in 10.0 mi NNE 6.9 mph - N/A   Clear
10:53 PM 32.0 °F 28.7 °F 12.9 °F 45% 30.30 in 10.0 mi NNE 3.5 mph - N/A   Clear
11:53 PM 30.9 °F 27.5 °F 12.9 °F 47% 30.32 in 10.0 mi NNE 3.5 mph - N/A   Clear